Please be sure to check the latest weather conditions by clicking the link and viewing our local weather information!

Check Weather

Welcome to Lakeway Airpark (3R9)

FromTheAir

We’re a community airpark nestled within the town of Lakeway, Texas (17 miles northwest of downtown Austin).

Lakeway Airpark, Inc. was formed by Lakeway residents and interested parties to own and manage Lakeway Airpark (3R9).

The Airpark is a privately owned not for profit public use airport for residents and guests of Lakeway. No public funds are used and the airport is supported by fees and fuel sales at the airport.

Lakeway Airpark is an unmanned facility open for use from Sunrise to Sunset seven days a week. Takeoffs and landings are not permitted at night, between Sunset and Sunrise, by City Ordinance.

Quick Weather Info

Available data for KAUS from the past 2 hours

METAR
KAUS 241709Z 15013KT 10SM SCT011 BKN016 OVC055 24/22 A2985 RMK AO2 T02440222
KAUS 241653Z 16014KT 10SM OVC013 24/22 A2985 RMK AO2 SLP101 T02390222
KAUS 241553Z 15013G20KT 10SM BKN011 OVC034 23/22 A2986 RMK AO2 SLP102 T02330217